Home > Weather > Muyinga > Past weeks

Flag for Burundi Weather for the Past 2 Weeks in Muyinga, Burundi

Now
64 °F

Passing clouds.


Feels Like: 64 °F
Forecast: 60 / 71 °F
Wind: 3 mph from North

Location: Kigali Airport

Current Time: May 2, 2016 at 3:39:45 AM

Latest Report: May 2, 2016 at 2:30 AM


Visibility: N/A

Pressure: 30.09 "Hg (24.51 "Hg at 1749m altitude)

Humidity: 94%

Dew Point: 63 °F

Location of MuyingaLocation

Historic Weather in Muyinga — Graph

°F

Muyinga Temperature Yesterday

Maximum temperature yesterday: 73 °F (at 3:00 PM)
Minimum temperature yesterday: 64 °F (at 1:00 AM)
Average temperature yesterday: 68 °F

High & Low Weather Summary for the Past Weeks

 TemperatureHumidityPressure
High84 °F (Apr 22, 2:00 PM)100% (Apr 17, 2:00 AM)30.24 "Hg (Apr 17, 2:00 AM)
Low61 °F (Apr 20, 6:00 AM)48% (Apr 21, 2:30 PM)29.98 "Hg (Apr 23, 3:30 PM)
Average70 °F81%30.12 "Hg
* Reported Apr 17 2:00 AM — May 2 1:00 AM, Muyinga, Weather by CustomWeather, © 2016

Note: Actual official high and low records may vary slightly from our data, if they occured in-between our weather recording intervals... More about our weather records

Advertising

Muyinga Weather History for the Previous 24 Hours

Scroll right to see more
 ConditionsComfort  
Time TempWeatherWind HumidityBarometerVisibility
1:00 AM
Mon, May 2
64 °FPassing clouds.3 mph94%30.12 "HgN/A
10:00 PM
Sun, May 1
66 °FPassing clouds.5 mph88%30.15 "HgN/A
6:00 PM68 °FPassing clouds.No wind83%30.07 "HgN/A
5:00 PM70 °FScattered clouds.8 mph78%30.07 "HgN/A
3:30 PM70 °FScattered clouds.15 mph83%30.04 "HgN/A
3:00 PM73 °FScattered clouds.6 mph74%30.07 "HgN/A
1:00 PM72 °FPartly sunny.10 mph78%30.12 "HgN/A
12:30 PM68 °FPartly sunny.13 mph88%30.12 "HgN/A
12:00 PM68 °FLight rain. Partly sunny.10 mph88%30.15 "HgN/A
11:00 AM70 °FPartly sunny.7 mph88%30.18 "Hg5 mi
10:30 AM72 °FPartly sunny.3 mph78%30.18 "HgN/A
10:00 AM70 °FPartly sunny.3 mph83%30.18 "HgN/A
7:30 AM66 °FScattered clouds.2 mph94%30.15 "HgN/A
6:30 AM64 °FBroken clouds.5 mph94%30.12 "HgN/A
5:30 AM64 °FPassing clouds.5 mph94%30.12 "HgN/A
4:00 AM64 °FPassing clouds.3 mph94%30.09 "HgN/A
Weather by CustomWeather, © 2016

See weather overviewHow to use our weather pages